105P/Singer Brewster (2005)

Japanese version
Home page
Updated on February 4, 2007

---------------------------------------------------------------------

* Profile

* Pictures

* Orbital Elements

Epoch 2005 Sept. 27.0 TT = JDT 2453640.5
T 2005 Sept. 11.32687 TT                                MPC
q   2.0412980            (2000.0)            P               Q
n   0.15280236     Peri.   46.65188     -0.51520508     +0.85637428
a   3.4651019      Node   192.47131     -0.82525239     -0.50652961
e   0.4108981      Incl.    9.17951     -0.23134871     -0.10025389
P   6.45
>From 171 observations 1986 May 3-2005 Apr. 5, mean residual 0".69.  Non-
   gravitational parameters A1 = +0.21 +/- 0.17, A2 = -0.0699 +/- 0.0025.       

* Finding Charts

* Magnitudes Graph

        m1 = 13.8 + 5 log d + 7.5 log r

---------------------------------------------------------------------

The orbital elements are published on M.P.E.C. 2005-G26.
The charts are made with StellaNavigator Ver.2.0 for Windows (AstroArts / ASCII).
The magnitudes graphs are made with Comet for Windows.

---------------------------------------------------------------------

Copyright(C) Seiichi Yoshida (comet@aerith.net). All rights reserved.